Princeton, MN

3:18 AM CDT on September 28, 2016 (GMT -0500)
Princeton Municipal

Weather History for KPNM - May, 2013

Change the Weather History Date:

Tuesday, May 21, 2013

  Actual Average Record
Temperature  
Mean Temperature 48 °F -  
Max Temperature 51 °F 65 °F 82 °F (2007)
Min Temperature 44 °F 41 °F 30 °F (1997)
Degree Days  
Heating Degree Days 18    
Moisture  
Dew Point 45 °F    
Average Humidity 91    
Maximum Humidity 100    
Minimum Humidity 82    
Precipitation  
Precipitation 0.21 in - - ()
Sea Level Pressure  
Sea Level Pressure 29.66 in    
Wind  
Wind Speed 9 mph (NNE)    
Max Wind Speed 15 mph    
Max Gust Speed 22 mph    
Visibility 9 miles    
Events Rain    
Averages and records for this station are not official NWS values.
T = Trace of Precipitation, MM = Missing Value Source: NWS Daily Summary

Daily Weather History Graph

Daily Weather History Graph

Search for Another Location

Airport or City:

Trip Planner

Search our weather history database for the weather conditions in past years. The results will help you decide how hot, cold, wet, or windy it might be!

Date:

Astronomy

May. 21, 2013 Rise Set
Actual Time 5:37 AM CDT 8:45 PM CDT
Civil Twilight 5:01 AM CDT 9:21 PM CDT
Nautical Twilight 4:15 AM CDT 10:07 PM CDT
Astronomical Twilight 3:19 AM CDT 11:04 PM CDT
Moon 4:50 PM CDT (5/21) 3:17 AM CDT (5/21)
Length of Visible Light 16h 19m
Length of Day
15h 08m
Waxing Gibbous, 84% of the Moon is Illuminated
May 21
Waxing Gibbous
May 24
Full
May 31
Last Quarter
Jun 8
New
Jun 16
First Quarter

Hourly Weather History & Observations

Time (CDT) Temp. Windchill Dew Point Humidity Pressure Visibility Wind Dir Wind Speed Gust Speed Precip Events Conditions
12:11 AM 48.2 °F - 46.4 °F 93% 29.57 in 10.0 mi NE 8.1 mph - N/A   Overcast
12:31 AM 48.2 °F - 46.4 °F 93% 29.58 in 10.0 mi NE 5.8 mph - N/A   Overcast
12:51 AM 48.2 °F - 48.2 °F 100% 29.59 in 10.0 mi NNE 6.9 mph - N/A   Overcast
1:11 AM 48.2 °F - 46.4 °F 93% 29.58 in 10.0 mi ENE 6.9 mph - N/A   Overcast
1:31 AM 48.2 °F - 46.4 °F 93% 29.57 in 10.0 mi NE 10.4 mph - N/A   Overcast
1:51 AM 48.2 °F - 46.4 °F 93% 29.57 in 10.0 mi NE 8.1 mph - N/A   Overcast
2:11 AM 48.2 °F - 46.4 °F 93% 29.57 in 10.0 mi NNE 9.2 mph - N/A   Overcast
2:31 AM 46.4 °F 41.5 °F 44.6 °F 93% 29.57 in 10.0 mi NE 10.4 mph 16.1 mph N/A   Overcast
2:51 AM 46.4 °F 41.9 °F 44.6 °F 93% 29.56 in 10.0 mi NE 9.2 mph - N/A   Overcast
3:11 AM 46.4 °F 41.1 °F 44.6 °F 93% 29.56 in 10.0 mi NNE 11.5 mph - N/A   Overcast
3:31 AM 46.4 °F 42.9 °F 44.6 °F 93% 29.56 in 10.0 mi NE 6.9 mph 16.1 mph N/A   Overcast
3:51 AM 46.4 °F 42.4 °F 44.6 °F 93% 29.57 in 10.0 mi NE 8.1 mph - N/A   Overcast
4:01 AM 46.4 °F 42.9 °F 44.6 °F 93% 29.57 in 10.0 mi NE 6.9 mph - N/A   Overcast
12:17 PM 48.2 °F - 44.6 °F 87% 29.63 in 10.0 mi NNE 6.9 mph - N/A   Overcast
12:31 PM 48.2 °F - 44.6 °F 87% 29.63 in 10.0 mi NNE 6.9 mph - N/A   Overcast
12:51 PM 48.2 °F - 46.4 °F 93% 29.63 in 10.0 mi NE 8.1 mph - N/A   Overcast
1:11 PM 50.0 °F - 46.4 °F 87% 29.64 in 10.0 mi NNE 8.1 mph - N/A   Overcast
1:31 PM 50.0 °F - 46.4 °F 87% 29.64 in 10.0 mi NNE 11.5 mph - N/A   Overcast
1:51 PM 51.8 °F - 46.4 °F 82% 29.64 in 10.0 mi NNE 9.2 mph - N/A   Overcast
2:11 PM 51.8 °F - 46.4 °F 82% 29.64 in 10.0 mi NE 12.7 mph 17.3 mph N/A   Overcast
2:31 PM 51.8 °F - 46.4 °F 82% 29.65 in 10.0 mi NNE 10.4 mph - N/A   Overcast
2:51 PM 51.8 °F - 46.4 °F 82% 29.65 in 10.0 mi NNE 11.5 mph - N/A Rain Light Rain
3:11 PM 50.0 °F - 46.4 °F 87% 29.66 in 10.0 mi NNE 11.5 mph 16.1 mph N/A   Drizzle
3:31 PM 48.2 °F - 46.4 °F 93% 29.67 in 7.0 mi NNE 9.2 mph - N/A Rain Rain
3:51 PM 48.2 °F - 44.6 °F 87% 29.68 in 5.0 mi NE 8.1 mph - 0.04 in Rain Rain
4:11 PM 48.2 °F - 46.4 °F 93% 29.69 in 4.0 mi NNE 6.9 mph - 0.05 in Rain Rain
4:31 PM 48.2 °F - 46.4 °F 93% 29.69 in 7.0 mi NNE 5.8 mph - 0.07 in Rain Light Rain
4:51 PM 48.2 °F - 46.4 °F 93% 29.70 in 7.0 mi NNE 6.9 mph - 0.09 in Rain Light Rain
5:11 PM 48.2 °F - 46.4 °F 93% 29.71 in 5.0 mi NNE 8.1 mph - N/A Rain Light Rain
5:32 PM 48.2 °F - 46.4 °F 93% 29.71 in 5.0 mi NNE 11.5 mph - 0.02 in Rain Rain
5:51 PM 46.4 °F 40.7 °F 44.6 °F 93% 29.71 in 10.0 mi North 12.7 mph 17.3 mph 0.04 in Rain Rain
6:11 PM 46.4 °F 41.1 °F 44.6 °F 93% 29.70 in 7.0 mi North 11.5 mph - 0.01 in Rain Light Rain
6:32 PM 46.4 °F 41.1 °F 44.6 °F 93% 29.70 in 7.0 mi NNE 11.5 mph - 0.02 in Rain Light Rain
6:51 PM 46.4 °F 41.1 °F 44.6 °F 93% 29.71 in 7.0 mi NNE 11.5 mph - 0.03 in Rain Light Rain
7:11 PM 46.4 °F 40.7 °F 44.6 °F 93% 29.71 in 7.0 mi NNE 12.7 mph - N/A Rain Light Rain
7:31 PM 46.4 °F 40.7 °F 44.6 °F 93% 29.71 in 10.0 mi NNE 12.7 mph - N/A   Drizzle
7:51 PM 46.4 °F 41.5 °F 44.6 °F 93% 29.71 in 10.0 mi NNE 10.4 mph - N/A   Drizzle
8:11 PM 46.4 °F 40.7 °F 42.8 °F 87% 29.71 in 10.0 mi NNE 12.7 mph 18.4 mph N/A   Overcast
8:31 PM 46.4 °F 42.4 °F 42.8 °F 87% 29.73 in 4.0 mi NE 8.1 mph 16.1 mph N/A Rain Rain
8:51 PM 44.6 °F 39.2 °F 42.8 °F 93% 29.74 in 4.0 mi NNE 10.4 mph 17.3 mph N/A   Drizzle
9:11 PM 44.6 °F 41.4 °F 42.8 °F 93% 29.74 in 5.0 mi NE 5.8 mph - 0.01 in   Drizzle
9:31 PM 44.6 °F 40.2 °F 42.8 °F 93% 29.75 in 7.0 mi NNE 8.1 mph - 0.01 in   Light Drizzle
9:51 PM 44.6 °F 38.4 °F 42.8 °F 93% 29.75 in 10.0 mi NNE 12.7 mph 21.9 mph 0.01 in   Overcast
10:11 PM 44.6 °F 38.8 °F 42.8 °F 93% 29.74 in 10.0 mi NNE 11.5 mph 17.3 mph N/A   Overcast
10:31 PM 44.6 °F 39.2 °F 42.8 °F 93% 29.75 in 10.0 mi NNE 10.4 mph 17.3 mph N/A   Overcast
10:51 PM 44.6 °F 39.2 °F 42.8 °F 93% 29.75 in 10.0 mi North 10.4 mph - N/A   Overcast
11:11 PM 44.6 °F 39.2 °F 42.8 °F 93% 29.75 in 10.0 mi North 10.4 mph 20.7 mph N/A   Overcast
11:31 PM 44.6 °F 37.8 °F 42.8 °F 93% 29.74 in 10.0 mi NNE 15.0 mph 19.6 mph N/A   Overcast
11:51 PM 44.6 °F 39.2 °F 41.0 °F 87% 29.74 in 10.0 mi NNE 10.4 mph - N/A   Overcast